Content
SEND FEEDBACK

Daily
Averages
Monthly
Summary
Thailand

PHUKET, THAILAND


Home > Asia > Thailand
Elevation: 33 feet     Latitude: 08 07N     Longitude: 098 19E

WEATHER
 
SELECT A DAY
Number of Records: 227,823;   Date Range: 7/1/96 - 8/30/14
 
SHARE

PRINT THIS DATA

[ ← Previous Day ]
WEATHER ALMANAC - MARCH 15, 2013
[ Next Day → ]
[ °C ]   °F
Weather ElementAverageHighLow
Temperature85.7 °F95 °F (3:00 pm)75.2 °F (6:30 am)
Dewpoint70.5 °F75.2 °F (8:00 am)66.2 °F (11:30 am)
Humidity62.1 %89 % (6:30 am)39 % (3:00 pm)
Barometer29.88 in29.95 in (9:30 am)29.80 in (4:00 pm)
Wind Speed6.2 mph13.8 mph (10:30 am)
Weather ElementAverage
Visibility5.2 mi
Wind DirectionENE (63.8 °)

Weather ElementTotal
Precipitation---
Cooling Degree Days20.1 (Base 65)
Growing Degree Days35.1 (Base 50)
Averaged from 48 records on March 15, 2013
WEATHER CONDITIONS BREAKOUT
WIND DIRECTION BREAKOUT
WEATHER BY HOUR - MARCH 15, 2013
[ °C ]   °F
Local TimeTemperatureDewpointHumidityBarometerVisibilityWind DirectionWind SpeedGust SpeedPrecipitationEventsConditions
1:00 AM80.0 °F74.0 °F77 %29.87 in6.0 miCalmMist
1:00 AM78.8 °F71.6 °F78 %29.92 in5.6 miENE (60°)2.3 mphScattered Clouds
1:30 AM78.8 °F71.6 °F78 %29.89 in5.6 miCalmScattered Clouds
2:00 AM78.8 °F71.6 °F78 %29.89 in5.6 miCalmScattered Clouds
2:30 AM78.8 °F71.6 °F78 %29.86 in5.6 miEast (80°)3.5 mphScattered Clouds
3:00 AM78.8 °F71.6 °F78 %29.86 in5.6 miNNE (30°)2.3 mphScattered Clouds
3:30 AM78.8 °F73.4 °F83 %29.86 in5.6 miCalmScattered Clouds
4:00 AM77.0 °F71.6 °F83 %29.86 in5.6 miEast (80°)3.5 mphScattered Clouds
4:30 AM77.0 °F71.6 °F83 %29.86 in5.6 miCalmScattered Clouds
5:30 AM77.0 °F71.6 °F83 %29.86 in5.6 miENE (70°)2.3 mphScattered Clouds
6:00 AM77.0 °F71.6 °F83 %29.86 in5.6 miCalmScattered Clouds
6:30 AM75.2 °F71.6 °F89 %29.86 in5.6 miCalmScattered Clouds
7:00 AM75.2 °F71.6 °F89 %29.89 in5.0 miCalmMostly Cloudy
7:30 AM78.8 °F73.4 °F83 %29.89 in5.0 miCalmMostly Cloudy
8:00 AM82.4 °F75.2 °F79 %29.92 in5.0 miCalmScattered Clouds
8:30 AM84.2 °F73.4 °F70 %29.92 in5.0 miEast (80°)6.9 mphMostly Cloudy
9:00 AM86.0 °F73.4 °F66 %29.92 in4.3 miEast (100°)10.4 mphMostly Cloudy
9:30 AM87.8 °F71.6 °F58 %29.95 in4.3 miEast (80°)10.4 mphMostly Cloudy
10:00 AM87.8 °F73.4 °F62 %29.95 in5.0 miEast (80°)11.5 mphMostly Cloudy
10:30 AM89.6 °F71.6 °F55 %29.95 in5.0 miEast (90°)13.8 mphMostly Cloudy
11:00 AM89.6 °F68.0 °F49 %29.95 in5.0 miEast (90°)11.5 mphScattered Clouds
11:30 AM91.4 °F66.2 °F43 %29.95 in5.0 miENE (60°)8.1 mphScattered Clouds
12:00 PM91.4 °F66.2 °F43 %29.92 in5.0 miEast (90°)11.5 mphScattered Clouds
12:30 PM93.2 °F68.0 °F44 %29.92 in5.0 miEast (90°)10.4 mphScattered Clouds
1:00 PM93.2 °F66.2 °F41 %29.89 in5.0 miEast (100°)11.5 mphScattered Clouds
1:00 PM92.0 °F71.0 °F42 %29.90 in5.0 miEast (90°)8.1 mphHaze
1:30 PM93.2 °F66.2 °F41 %29.89 in5.0 miEast (100°)10.4 mphScattered Clouds
2:00 PM93.2 °F68.0 °F44 %29.86 in5.0 miEast (100°)11.5 mphScattered Clouds
2:30 PM93.2 °F68.0 °F44 %29.86 in5.0 miEast (90°)10.4 mphScattered Clouds
3:00 PM95.0 °F66.2 °F39 %29.83 in5.0 miEast (100°)11.5 mphScattered Clouds
3:30 PM95.0 °F66.2 °F39 %29.83 in5.0 miENE (70°)10.4 mphScattered Clouds
4:00 PM95.0 °F66.2 °F39 %29.80 in5.6 miEast (80°)9.2 mphScattered Clouds
4:30 PM93.2 °F68.0 °F44 %29.80 in5.6 miEast (80°)9.2 mphMostly Cloudy
5:00 PM93.2 °F68.0 °F44 %29.80 in5.6 miEast (100°)10.4 mphMostly Cloudy
5:30 PM91.4 °F69.8 °F49 %29.83 in5.6 miEast (90°)11.5 mphMostly Cloudy
6:00 PM91.4 °F69.8 °F49 %29.83 in5.6 miEast (100°)12.7 mphMostly Cloudy
6:30 PM87.8 °F71.6 °F58 %29.83 in5.0 miEast (100°)8.1 mphScattered Clouds
7:00 PM88.0 °F75.0 °F57 %29.81 in5.0 miEast (90°)5.8 mphMist
7:00 PM87.8 °F68.0 °F52 %29.83 in5.0 miEast (90°)9.2 mphMostly Cloudy
7:30 PM86.0 °F69.8 °F58 %29.86 in5.0 miEast (90°)6.9 mphMostly Cloudy
8:00 PM84.2 °F71.6 °F66 %29.86 in5.0 miENE (70°)3.5 mphMostly Cloudy
8:30 PM84.2 °F71.6 °F66 %29.89 in5.0 miVariable2.3 mphMostly Cloudy
9:00 PM84.2 °F71.6 °F66 %29.89 in5.0 miVariable2.3 mphMostly Cloudy
9:30 PM82.4 °F71.6 °F70 %29.92 in5.0 miVariable2.3 mphMostly Cloudy
10:00 PM84.2 °F71.6 °F66 %29.92 in5.0 miEast (90°)3.5 mphScattered Clouds
10:30 PM84.2 °F71.6 °F66 %29.95 in5.0 miESE (110°)4.6 mphScattered Clouds
11:00 PM84.2 °F71.6 °F66 %29.95 in5.0 miEast (100°)5.8 mphScattered Clouds
11:30 PM84.2 °F69.8 °F62 %29.92 in5.0 miEast (80°)5.8 mphScattered Clouds
Hourly data recorded from VTSP, located miles away from Phuket, Thailand







STORIES FROM OUR PARTNERS